Location: Rumah Dana
(3.1167°N, 113.0167°E)
Time: 19:22:17
(UTC+00:00)

Atlas Centaur 2 - Pass Details

Date: 03 August 2024
Orbit: 457 x 1271 km, 30.4° (Epoch: 10 September)

Event Time Altitude Azimuth Distance (km) Brightness Sun altitude
Exits shadow 20:26:18 35° 315° (NW) 1,890 3.7 -29.3°
Maximum altitude 20:30:10 74° 32° (NNE) 1,311 3.1 -28.4°
Drops below altitude 10° 20:38:27 10° 116° (ESE) 3,217 5.7 -26.4°
Sets 20:41:18 0° 118° (ESE) 4,135 6.3 -25.8°
